VOZ1003 YMHB-YBBN

Flight info

Callsign VOZ1003
Flight time N/A
Altitude 37000
Route TASUM H111 LT W218 VIMAP Y327 MAKRL/N0459F360 J163 CB W137 AVBEG W184 MUDGI/N0459F370 H66 LAGOB H252 BN
Aircraft B38M/M-SDE1FGHILORVWXY/HB1

Departure

Time 2026-05-05 04:32
Airport Hobart International Airport (YMHB)

Arrival

Time N/A
Airport Brisbane International Airport (YBBN)
Time Latitude Longitude Altitude Speed Heading
2026-05-05 04:18 -42.83682 147.50626 24 ft 0 kts 225°
2026-05-05 04:20 -42.83673 147.50637 29 ft 3 kts 225°
2026-05-05 04:20 -42.83660 147.50656 27 ft 3 kts 224°
2026-05-05 04:20 -42.83646 147.50667 27 ft 3 kts 176°
2026-05-05 04:21 -42.83631 147.50659 27 ft 2 kts 138°
2026-05-05 04:21 -42.83622 147.50648 26 ft 3 kts 135°
2026-05-05 04:21 -42.83608 147.50629 26 ft 3 kts 135°
2026-05-05 04:21 -42.83594 147.50610 26 ft 3 kts 135°
2026-05-05 04:22 -42.83586 147.50600 24 ft 2 kts 135°
2026-05-05 04:22 -42.83584 147.50596 24 ft 0 kts 135°
2026-05-05 04:27 -42.83591 147.50606 27 ft 3 kts 132°
2026-05-05 04:27 -42.83594 147.50658 24 ft 11 kts 65°
2026-05-05 04:27 -42.83594 147.50785 25 ft 20 kts 133°
2026-05-05 04:27 -42.83696 147.50922 26 ft 22 kts 135°
2026-05-05 04:28 -42.83792 147.51053 28 ft 17 kts 136°
2026-05-05 04:28 -42.83857 147.51149 27 ft 10 kts 120°
2026-05-05 04:28 -42.83823 147.51246 24 ft 15 kts 45°
2026-05-05 04:28 -42.83765 147.51375 24 ft 18 kts 103°
2026-05-05 04:29 -42.83862 147.51516 26 ft 24 kts 136°
2026-05-05 04:29 -42.83993 147.51692 26 ft 29 kts 135°
2026-05-05 04:29 -42.84146 147.51902 24 ft 32 kts 135°
2026-05-05 04:29 -42.84304 147.52120 26 ft 33 kts 136°
2026-05-05 04:30 -42.84459 147.52301 25 ft 26 kts 158°
2026-05-05 04:30 -42.84575 147.52372 26 ft 10 kts 118°
2026-05-05 04:30 -42.84539 147.52421 27 ft 9 kts 348°
2026-05-05 04:30 -42.84496 147.52373 25 ft 7 kts 315°
2026-05-05 04:31 -42.84451 147.52312 27 ft 15 kts 315°
2026-05-05 04:31 -42.84212 147.51990 28 ft 88 kts 314°
2026-05-05 04:31 -42.83616 147.51182 40 ft 151 kts 314°
2026-05-05 04:31 -42.82794 147.50118 569 ft 164 kts 311°
2026-05-05 04:32 -42.81980 147.49005 1340 ft 180 kts 313°
2026-05-05 04:32 -42.80987 147.47693 1772 ft 213 kts 314°
2026-05-05 04:32 -42.79833 147.46182 2227 ft 246 kts 314°
2026-05-05 04:32 -42.78355 147.45030 3475 ft 246 kts 347°
2026-05-05 04:33 -42.76702 147.45332 4994 ft 241 kts 24°
2026-05-05 04:33 -42.75368 147.46620 6363 ft 228 kts 32°
2026-05-05 04:33 -42.74049 147.47820 7249 ft 234 kts 29°
2026-05-05 04:33 -42.72691 147.49014 8007 ft 240 kts 29°
2026-05-05 04:34 -42.71229 147.50287 8533 ft 259 kts 28°
2026-05-05 04:34 -42.69636 147.51597 9086 ft 277 kts 29°
2026-05-05 04:34 -42.67935 147.53037 9646 ft 297 kts 29°
2026-05-05 04:34 -42.66133 147.54554 10248 ft 312 kts 29°
2026-05-05 04:35 -42.64220 147.56154 10695 ft 332 kts 29°
2026-05-05 04:35 -42.62189 147.57848 11157 ft 350 kts 29°
2026-05-05 04:35 -42.59972 147.59307 11717 ft 358 kts 12°
2026-05-05 04:35 -42.57552 147.59607 12474 ft 355 kts 350°
2026-05-05 04:36 -42.55201 147.58722 13222 ft 352 kts 330°
2026-05-05 04:36 -42.53066 147.57080 13970 ft 354 kts 325°
2026-05-05 04:36 -42.50938 147.55366 14671 ft 357 kts 324°
2026-05-05 04:36 -42.48802 147.53620 15371 ft 360 kts 324°
2026-05-05 04:37 -42.46650 147.51845 16029 ft 364 kts 324°
2026-05-05 04:37 -42.44481 147.50045 16730 ft 366 kts 324°
2026-05-05 04:37 -42.42298 147.48231 17384 ft 370 kts 324°
2026-05-05 04:37 -42.40090 147.46397 18034 ft 373 kts 324°
2026-05-05 04:38 -42.37865 147.44549 18611 ft 376 kts 323°
2026-05-05 04:38 -42.35637 147.42699 19133 ft 379 kts 323°
2026-05-05 04:38 -42.33367 147.40843 19643 ft 384 kts 327°
2026-05-05 04:38 -42.30806 147.39642 20192 ft 396 kts 344°
2026-05-05 04:39 -42.28115 147.38955 20673 ft 401 kts 344°
2026-05-05 04:39 -42.25357 147.38252 21139 ft 406 kts 344°
2026-05-05 04:39 -42.22561 147.37561 21520 ft 412 kts 345°
2026-05-05 04:39 -42.19725 147.36871 22043 ft 416 kts 345°
2026-05-05 04:40 -42.16856 147.36181 22531 ft 419 kts 345°
2026-05-05 04:40 -42.13972 147.35490 23030 ft 423 kts 345°
2026-05-05 04:40 -42.11077 147.34796 23493 ft 426 kts 345°
2026-05-05 04:40 -42.08144 147.34093 23917 ft 430 kts 345°
2026-05-05 04:41 -42.05186 147.33384 24356 ft 433 kts 345°
2026-05-05 04:41 -42.02205 147.32672 24746 ft 436 kts 345°
2026-05-05 04:41 -41.99197 147.31953 25138 ft 440 kts 345°
2026-05-05 04:41 -41.96177 147.31232 25572 ft 442 kts 345°
2026-05-05 04:42 -41.93145 147.30508 25990 ft 445 kts 345°
2026-05-05 04:42 -41.90082 147.29778 26397 ft 448 kts 345°
2026-05-05 04:42 -41.87053 147.29058 26798 ft 450 kts 345°
2026-05-05 04:42 -41.83952 147.28320 27174 ft 454 kts 345°
2026-05-05 04:43 -41.80832 147.27579 27560 ft 456 kts 345°
2026-05-05 04:43 -41.77698 147.26835 27948 ft 459 kts 345°
2026-05-05 04:43 -41.74542 147.26087 28322 ft 462 kts 345°
2026-05-05 04:43 -41.71352 147.25331 28692 ft 464 kts 344°
2026-05-05 04:44 -41.68201 147.24586 29111 ft 465 kts 344°
2026-05-05 04:44 -41.65005 147.23830 29456 ft 468 kts 344°
2026-05-05 04:44 -41.62883 147.23329 29677 ft 470 kts 344°
2026-05-05 04:44 -41.59640 147.22564 29994 ft 473 kts 345°
2026-05-05 04:45 -41.56393 147.21798 30291 ft 475 kts 345°
2026-05-05 04:45 -41.53082 147.21276 30597 ft 483 kts 355°
2026-05-05 04:45 -41.48615 147.21235 31014 ft 485 kts 355°
2026-05-05 04:45 -41.46325 147.21191 31212 ft 486 kts 355°
2026-05-05 04:46 -41.42933 147.21131 31527 ft 488 kts 354°
2026-05-05 04:46 -41.39544 147.21074 31856 ft 488 kts 355°
2026-05-05 04:46 -41.36198 147.21017 32232 ft 488 kts 355°
2026-05-05 04:46 -41.32799 147.20960 32653 ft 487 kts 355°
2026-05-05 04:47 -41.29424 147.20903 33071 ft 485 kts 355°
2026-05-05 04:47 -41.26050 147.20846 33489 ft 484 kts 355°
2026-05-05 04:47 -41.22690 147.20789 33895 ft 483 kts 355°
2026-05-05 04:47 -41.19323 147.20733 34258 ft 482 kts 355°
2026-05-05 04:48 -41.15967 147.20676 34563 ft 481 kts 355°
2026-05-05 04:48 -41.12639 147.20620 34923 ft 479 kts 355°
2026-05-05 04:48 -41.09318 147.20564 35357 ft 475 kts 355°
2026-05-05 04:48 -41.06026 147.20509 35772 ft 472 kts 355°
2026-05-05 04:49 -41.02744 147.20454 36143 ft 470 kts 355°
2026-05-05 04:49 -40.99526 147.20400 36486 ft 468 kts 354°
2026-05-05 04:49 -40.96263 147.20345 36775 ft 467 kts 354°
2026-05-05 04:49 -40.93023 147.20291 37035 ft 466 kts 354°
2026-05-05 04:50 -40.89779 147.20238 37043 ft 465 kts 354°
2026-05-05 04:50 -40.83339 147.20130 37014 ft 462 kts 354°
2026-05-05 04:51 -40.76902 147.20023 37028 ft 463 kts 354°
2026-05-05 04:51 -40.70443 147.19916 37034 ft 464 kts 354°
2026-05-05 04:52 -40.64035 147.21063 37036 ft 475 kts 18°
2026-05-05 04:52 -40.57977 147.24458 37031 ft 480 kts 19°
2026-05-05 04:53 -40.51855 147.27995 37045 ft 480 kts 20°
2026-05-05 04:53 -40.45753 147.31557 37037 ft 480 kts 20°
2026-05-05 04:54 -40.39659 147.35110 37043 ft 480 kts 20°
2026-05-05 04:54 -40.33554 147.38663 37055 ft 480 kts 20°
2026-05-05 04:55 -40.27467 147.42198 37051 ft 479 kts 20°
2026-05-05 04:55 -40.21364 147.45736 37058 ft 479 kts 20°
2026-05-05 04:56 -40.15287 147.49252 37061 ft 479 kts 20°
2026-05-05 04:56 -40.09180 147.52777 37067 ft 478 kts 20°
2026-05-05 04:57 -40.03127 147.56266 37066 ft 478 kts 20°
2026-05-05 04:57 -39.97030 147.59773 37073 ft 478 kts 20°
2026-05-05 04:58 -39.90945 147.63265 37075 ft 478 kts 20°
2026-05-05 04:58 -39.84850 147.66757 37083 ft 479 kts 20°
2026-05-05 04:59 -39.78737 147.70253 37074 ft 480 kts 20°
2026-05-05 04:59 -39.72625 147.73740 37080 ft 480 kts 20°
2026-05-05 05:00 -39.66565 147.77191 37085 ft 480 kts 20°
2026-05-05 05:00 -39.60450 147.80668 37092 ft 480 kts 20°
2026-05-05 05:01 -39.54333 147.84139 37089 ft 480 kts 20°
2026-05-05 05:01 -39.48230 147.87595 37070 ft 479 kts 20°
2026-05-05 05:02 -39.42120 147.91048 37097 ft 479 kts 20°
2026-05-05 05:02 -39.36014 147.94492 37101 ft 479 kts 20°
2026-05-05 05:03 -39.29891 147.97940 37091 ft 478 kts 20°
2026-05-05 05:03 -39.23845 148.01337 37096 ft 478 kts 20°